PBO Station Position Time Series. Reference Frame : NAM14
Format Version,1.1.0
4-character ID,GUS6
Station name,Gustavus_6
Begin Date, 2008-06-20
End Date, 2019-10-07
Release Date, 2019-10-08
Reference position, 58.4177566749 North Latitude, -135.6970516889 East Longitude, 20.28476 meters elevation,
Date, North (mm), East (mm), Vertical (mm), North Std. Deviation (mm), East Std. Deviation (mm),              Vertical Std. Deviation (mm), Quality,
2008-06-20,0.00, 0.00, 0.00, 2.46, 1.56, 7.38, repro,
2008-06-21,0.37, 1.30, 0.44, 3.00, 1.95, 9.36, repro,
2008-06-27,-3.23, -3.94, -0.14, 12.78, 6.46, 26.27, repro,
2008-06-28,0.87, -0.16, 3.80, 2.35, 1.47, 6.92, repro,
2008-06-29,0.24, -0.73, 3.02, 2.33, 1.48, 6.94, repro,
2008-06-30,1.60, -0.30, 5.68, 2.37, 1.50, 7.09, repro,
2008-07-01,1.10, -0.25, 0.70, 2.35, 1.49, 7.10, repro,
2008-07-02,1.22, -1.39, 3.88, 2.37, 1.52, 7.17, repro,
2008-07-03,1.14, 0.68, -0.94, 2.34, 1.47, 6.91, repro,
2008-07-04,2.10, -0.98, 4.66, 2.35, 1.49, 6.98, repro,
2008-07-05,1.11, 0.15, 8.63, 2.34, 1.48, 6.93, repro,
2008-07-06,-0.29, 0.35, 13.67, 2.32, 1.47, 6.93, repro,
2008-07-07,-0.12, -0.35, 5.95, 2.34, 1.48, 6.98, repro,
2008-07-08,0.77, -0.27, 14.49, 2.33, 1.47, 6.92, repro,
2008-07-09,-7.19, 0.89, 1.46, 9.34, 5.50, 23.82, repro,
2008-07-10,1.06, -0.54, 11.42, 2.40, 1.52, 7.10, repro,
2008-07-11,0.55, -0.25, 6.82, 2.40, 1.52, 7.12, repro,
2008-07-12,0.92, -0.36, 12.06, 2.34, 1.47, 6.95, repro,
2008-07-13,-0.03, -1.06, 11.85, 2.32, 1.47, 6.91, repro,
2008-07-14,0.54, 0.92, 10.36, 2.32, 1.47, 6.91, repro,
2008-07-15,0.60, -0.02, 3.75, 2.34, 1.47, 6.93, repro,
2008-07-16,0.70, 0.61, 4.21, 2.34, 1.47, 6.94, repro,
2008-07-17,0.58, -0.03, 7.79, 2.33, 1.47, 6.90, repro,
2008-07-18,2.06, -1.30, 16.17, 2.38, 1.50, 7.07, repro,
2008-07-19,-0.13, -1.22, 16.27, 2.37, 1.49, 7.06, repro,
2008-07-20,0.25, -0.98, 15.69, 2.33, 1.47, 6.88, repro,
2008-07-21,1.32, -1.10, 18.80, 2.40, 1.52, 7.15, repro,
2008-07-22,0.63, 0.29, 13.75, 2.36, 1.48, 6.95, repro,
2008-07-23,1.95, -0.32, 14.04, 2.41, 1.50, 7.08, repro,
2008-07-24,2.09, -1.30, 13.77, 2.33, 1.48, 6.95, repro,
2008-07-25,-3.98, -0.36, -12.53, 7.05, 4.05, 23.35, repro,
2008-07-30,2.60, 2.14, 11.65, 5.40, 3.25, 13.23, repro,
2008-07-31,0.92, -0.40, 9.93, 2.38, 1.51, 7.00, repro,
2008-08-01,0.79, -0.28, 17.59, 2.34, 1.48, 6.95, repro,
2008-08-02,0.72, -0.30, 15.98, 2.32, 1.47, 6.88, repro,
2008-08-03,1.30, -0.97, 17.49, 2.34, 1.51, 7.18, repro,
2008-08-04,2.07, -0.92, 12.04, 3.00, 1.95, 9.66, repro,
2008-08-05,1.53, -0.65, 13.03, 2.33, 1.48, 6.93, repro,
2008-08-06,1.22, -1.19, 17.62, 2.36, 1.49, 6.97, repro,
2008-08-07,0.78, -0.71, 17.25, 2.49, 1.54, 7.32, repro,
2008-08-08,1.70, -3.09, 17.82, 2.45, 1.51, 7.14, repro,
2008-08-09,0.89, -1.16, 18.73, 2.39, 1.49, 7.01, repro,
2008-08-10,-0.65, -0.39, 17.57, 2.39, 1.49, 7.00, repro,
2008-08-11,1.70, -1.05, 17.67, 2.71, 1.71, 8.15, repro,
2008-08-12,6.99, -1.15, 19.57, 10.28, 5.48, 30.06, repro,
2008-08-13,-2.17, -0.44, 16.41, 2.41, 1.52, 7.06, repro,
2008-08-14,-1.81, -1.26, 12.35, 2.37, 1.49, 6.95, repro,
2008-08-15,0.66, -1.18, 14.71, 2.40, 1.51, 7.03, repro,
2008-08-16,-0.79, -0.31, 19.33, 2.36, 1.49, 7.00, repro,
2008-08-17,0.07, -0.67, 20.64, 2.38, 1.51, 7.03, repro,
2008-08-18,-0.15, 0.01, 20.42, 2.39, 1.50, 7.00, repro,
2008-08-19,-0.29, -1.97, 25.91, 2.37, 1.50, 6.98, repro,
2008-08-20,-0.95, -1.25, 27.97, 2.39, 1.49, 7.00, repro,
2008-08-21,-1.44, -0.81, 23.52, 2.38, 1.50, 7.02, repro,
2008-08-22,-0.29, -0.91, 26.96, 2.36, 1.49, 6.97, repro,
2008-08-23,-3.09, -0.98, 26.70, 2.39, 1.49, 6.97, repro,
2008-08-24,-0.85, -2.03, 28.03, 2.39, 1.51, 7.07, repro,
2008-08-25,-0.97, -0.91, 25.55, 2.36, 1.50, 6.95, repro,
2008-08-26,0.28, -1.20, 24.97, 2.38, 1.48, 6.95, repro,
2008-08-27,-2.05, -0.53, 23.68, 2.40, 1.51, 7.07, repro,
2008-08-28,-2.72, 0.18, 23.48, 2.47, 1.56, 7.14, repro,
2008-08-29,-1.89, -0.89, 16.69, 2.39, 1.51, 7.07, repro,
2008-08-30,-0.66, -0.97, 19.96, 2.38, 1.51, 7.07, repro,
2008-08-31,-0.80, 0.61, 20.60, 2.41, 1.52, 7.14, repro,
2008-09-01,0.01, -0.28, 20.08, 2.41, 1.51, 7.12, repro,
2008-09-02,-0.29, 0.19, 15.77, 2.40, 1.52, 7.08, repro,
2008-09-03,-0.18, -0.70, 18.80, 2.39, 1.51, 7.05, repro,
2008-09-04,-1.30, 0.16, 15.22, 2.64, 1.69, 8.10, repro,
2008-09-05,0.78, -0.05, 17.33, 2.48, 1.58, 7.34, repro,
2008-09-06,1.03, 1.24, 18.65, 2.41, 1.51, 7.09, repro,
2008-09-07,-1.28, 0.31, 16.78, 2.41, 1.54, 7.14, repro,
2008-09-08,-0.83, -0.06, 20.11, 2.38, 1.50, 7.02, repro,
2008-09-09,-0.56, 0.41, 22.76, 2.45, 1.52, 7.18, repro,
2008-09-10,-1.42, 1.90, 19.13, 2.49, 1.57, 7.29, repro,
2008-09-11,-1.79, -0.34, 21.62, 2.73, 1.71, 8.28, repro,
2008-09-12,-0.23, -0.70, 19.03, 2.42, 1.52, 7.17, repro,
2008-09-13,-1.47, 0.87, 19.25, 2.38, 1.50, 7.02, repro,
2008-09-14,-0.04, 0.30, 23.10, 2.39, 1.50, 7.06, repro,
2008-09-15,-0.29, 0.57, 24.37, 2.41, 1.52, 7.15, repro,
2008-09-16,0.19, 0.58, 20.20, 2.41, 1.53, 7.29, repro,
2008-09-17,0.44, -0.64, 16.00, 2.48, 1.58, 7.58, repro,
2008-09-18,0.57, 0.23, 24.49, 2.40, 1.49, 6.97, repro,
2008-09-19,-0.94, -1.12, 23.91, 2.36, 1.50, 6.99, repro,
2008-09-20,-1.91, -1.46, 26.87, 2.41, 1.52, 7.05, repro,
2008-09-21,0.87, -0.84, 20.35, 2.37, 1.50, 6.99, repro,
2008-09-22,0.48, -0.74, 21.61, 2.38, 1.50, 6.98, repro,
2008-09-23,0.03, -0.64, 18.41, 2.36, 1.49, 6.93, repro,
2008-09-25,0.39, -0.52, 21.61, 2.36, 1.49, 6.95, repro,
2008-09-26,-0.92, -0.31, 21.68, 2.37, 1.50, 6.97, repro,
2008-09-27,-0.68, -0.23, 21.29, 2.37, 1.50, 6.99, repro,
2008-09-28,-1.35, 0.34, 23.65, 2.37, 1.50, 6.98, repro,
2008-09-29,-1.10, 0.22, 24.73, 2.38, 1.49, 6.95, repro,
2008-09-30,-1.22, -1.98, 20.60, 2.40, 1.52, 7.12, repro,
2008-10-01,-2.09, -0.77, 23.67, 2.37, 1.50, 6.96, repro,
2008-10-02,-0.71, -1.36, 29.27, 2.42, 1.51, 7.07, repro,
2008-10-03,-5.06, -0.86, 27.54, 2.37, 1.50, 6.99, repro,
2008-10-04,-0.28, -1.84, 28.45, 2.36, 1.48, 6.92, repro,
2008-10-05,0.16, -1.13, 27.03, 2.38, 1.49, 6.95, repro,
2008-10-06,0.14, -1.80, 23.66, 2.36, 1.48, 6.91, repro,
2008-10-07,-0.27, -0.62, 23.51, 2.41, 1.50, 7.03, repro,
2008-10-08,-0.15, -1.29, 22.20, 2.41, 1.50, 6.96, repro,
2008-10-09,0.11, -0.26, 15.78, 2.33, 1.47, 6.89, repro,
2008-10-10,0.14, -1.42, 16.02, 2.34, 1.47, 6.89, repro,
2008-10-11,-0.78, -0.45, 20.01, 2.43, 1.52, 7.13, repro,
2008-10-12,0.65, -2.16, 23.20, 2.45, 1.52, 7.21, repro,
2008-10-13,-0.56, -1.40, 22.33, 2.34, 1.46, 6.86, repro,
2008-10-14,1.50, -1.42, 21.27, 2.33, 1.47, 6.89, repro,
2008-10-15,-1.19, -1.28, 18.95, 2.36, 1.49, 7.06, repro,
2008-10-16,2.45, -2.14, 22.02, 2.39, 1.51, 7.14, repro,
2008-10-17,0.55, -1.50, 18.75, 2.34, 1.48, 6.91, repro,
2008-10-18,2.21, -0.75, 23.17, 2.34, 1.48, 6.90, repro,
2008-10-19,-0.95, -1.50, 17.47, 2.32, 1.47, 6.85, repro,
2008-10-20,0.99, -0.39, 19.80, 2.45, 1.55, 7.44, repro,
2008-10-21,0.45, -1.10, 21.34, 2.31, 1.47, 6.83, repro,
2008-10-22,1.96, -0.39, 16.42, 2.34, 1.48, 6.92, repro,
2008-10-23,1.01, -0.99, 25.21, 2.37, 1.48, 6.96, repro,
2008-10-24,-2.24, -1.38, 20.15, 2.35, 1.47, 6.88, repro,
2008-10-25,0.17, 0.04, 20.55, 2.43, 1.51, 7.08, repro,
2008-10-26,1.17, -0.08, 12.59, 2.33, 1.47, 6.89, repro,
2008-10-27,1.43, -2.59, 13.13, 2.31, 1.46, 6.82, repro,
2008-10-28,0.87, -1.85, 14.59, 2.43, 1.51, 7.05, repro,
2008-10-29,0.02, -3.12, 15.71, 2.50, 1.56, 7.21, repro,
2008-10-30,0.08, -0.59, 17.17, 2.33, 1.46, 6.86, repro,
2008-10-31,0.29, -1.66, 12.96, 2.36, 1.49, 7.03, repro,
2008-11-01,-0.68, -1.00, 13.92, 2.32, 1.46, 6.83, repro,
2008-11-02,-0.84, -1.74, 21.18, 2.53, 1.63, 7.81, repro,
2008-11-03,1.56, -1.60, 19.37, 2.39, 1.50, 7.06, repro,
2008-11-04,1.47, -1.80, 21.10, 2.36, 1.49, 6.99, repro,
2008-11-05,0.58, 0.09, 15.76, 2.36, 1.49, 7.00, repro,
2008-11-06,0.63, -1.51, 11.00, 2.48, 1.59, 7.66, repro,
2008-11-07,0.48, -0.94, 15.27, 2.39, 1.51, 7.08, repro,
2008-11-08,-0.12, -0.93, 19.22, 2.38, 1.53, 7.20, repro,
2008-11-09,-0.88, -0.39, 15.52, 2.38, 1.50, 7.08, repro,
2008-11-10,-0.96, -0.88, 20.59, 2.37, 1.52, 7.19, repro,
2008-11-11,-0.64, -1.27, 22.27, 2.39, 1.52, 7.21, repro,
2008-11-12,-1.07, -0.30, 28.17, 2.36, 1.50, 7.06, repro,
2008-11-13,1.47, -0.42, 17.35, 2.36, 1.49, 6.97, repro,
2008-11-14,0.37, -1.33, 14.22, 2.38, 1.52, 7.16, repro,
2008-11-15,-0.10, 0.45, 9.09, 2.36, 1.51, 7.05, repro,
2008-11-16,1.93, 0.20, 6.79, 2.39, 1.56, 7.40, repro,
2008-11-17,2.35, -0.33, 6.88, 2.38, 1.53, 7.20, repro,
2008-11-18,0.75, -0.65, 12.86, 2.47, 1.63, 8.02, repro,
2008-11-19,1.71, 0.53, 4.40, 2.39, 1.55, 7.40, repro,
2008-11-20,2.01, -0.05, 7.73, 2.38, 1.52, 7.17, repro,
2008-11-21,1.51, -0.10, 2.00, 2.43, 1.60, 7.60, repro,
2008-11-22,0.68, -0.59, 22.61, 2.44, 1.62, 7.91, repro,
2008-11-23,-0.47, -0.43, 11.32, 2.58, 1.62, 7.83, repro,
2008-11-24,2.00, -0.10, 8.01, 4.46, 2.99, 14.65, repro,
2008-11-25,-0.17, -0.45, 20.82, 3.35, 2.10, 9.95, repro,
2008-11-26,-0.49, -0.93, 11.03, 2.48, 1.57, 7.28, repro,
2008-11-27,1.70, -0.48, 12.85, 2.40, 1.55, 7.50, repro,
2008-11-28,-2.42, -0.16, 13.03, 2.45, 1.56, 7.43, repro,
2008-11-29,0.30, -1.43, 9.78, 2.45, 1.57, 7.49, repro,
2008-11-30,1.38, 0.24, 16.83, 2.37, 1.50, 7.01, repro,
2008-12-01,2.16, -0.24, 6.93, 2.33, 1.46, 6.78, repro,
2008-12-02,1.81, 0.27, 9.18, 2.42, 1.52, 7.16, repro,
2008-12-03,0.63, 0.70, 5.91, 2.47, 1.55, 7.24, repro,
2008-12-04,4.23, -1.25, 4.79, 2.46, 1.57, 7.33, repro,
2008-12-05,0.52, -0.49, 9.23, 2.37, 1.52, 7.14, repro,
2008-12-06,0.33, -0.65, 14.32, 2.44, 1.62, 7.84, repro,
2008-12-07,0.37, -0.39, 12.30, 2.66, 1.71, 8.41, repro,
2008-12-08,1.53, -0.61, 11.96, 2.45, 1.60, 7.68, repro,
2008-12-09,-0.55, -0.68, 12.54, 2.42, 1.52, 7.03, repro,
2008-12-10,0.05, -4.57, 9.57, 2.62, 1.65, 7.51, repro,
2008-12-11,1.32, -0.91, 6.95, 3.13, 1.98, 9.40, repro,
2008-12-12,4.68, -0.47, -2.81, 2.60, 1.70, 8.20, repro,
2008-12-13,-0.97, -0.90, 5.29, 4.17, 2.56, 13.16, repro,
2008-12-15,6.29, 1.34, -13.46, 6.95, 3.92, 16.76, repro,
2008-12-16,3.56, 0.98, 3.21, 2.33, 1.48, 6.91, repro,
2008-12-17,1.33, 1.09, 4.78, 2.38, 1.49, 6.96, repro,
2008-12-18,3.02, 1.32, 4.97, 2.53, 1.58, 7.48, repro,
2008-12-19,3.83, 3.20, -2.08, 2.53, 1.57, 7.43, repro,
2008-12-20,2.31, 5.33, 3.39, 2.44, 1.56, 7.37, repro,
2008-12-21,4.37, 5.43, 2.43, 2.33, 1.49, 7.02, repro,
2008-12-22,4.21, 7.35, 8.69, 2.42, 1.54, 7.15, repro,
2008-12-23,2.64, 7.46, 2.80, 2.36, 1.49, 6.96, repro,
2008-12-24,3.80, 5.64, 3.91, 2.37, 1.48, 6.96, repro,
2008-12-25,1.89, 5.35, 13.97, 2.35, 1.47, 6.92, repro,
2008-12-26,2.51, 4.96, 15.19, 2.33, 1.47, 6.86, repro,
2008-12-27,1.86, 1.96, 5.44, 2.33, 1.47, 6.88, repro,
2008-12-28,1.71, 3.65, -2.25, 2.36, 1.47, 6.92, repro,
2008-12-29,1.97, 3.49, -11.97, 2.36, 1.48, 6.94, repro,
2008-12-30,1.37, 2.45, -15.83, 2.37, 1.48, 6.99, repro,
2008-12-31,2.17, 3.03, -10.47, 2.33, 1.47, 6.89, repro,
2009-01-01,2.14, 3.15, -10.38, 2.33, 1.46, 6.87, repro,
2009-01-02,-0.53, 4.93, -14.10, 2.34, 1.48, 6.93, repro,
2009-01-03,0.18, 4.91, -9.01, 2.36, 1.49, 7.00, repro,
2009-01-04,-0.43, 3.88, -11.99, 2.35, 1.49, 6.98, repro,
2009-01-05,1.01, 2.50, -11.94, 2.39, 1.50, 7.09, repro,
2009-01-06,3.03, 2.26, -21.02, 2.39, 1.52, 7.10, repro,
2009-01-07,2.48, 2.34, -21.83, 2.33, 1.47, 6.90, repro,
2009-01-08,2.10, 1.81, -23.99, 2.40, 1.53, 7.10, repro,
2009-01-09,3.85, 1.12, -46.58, 2.44, 1.56, 7.31, repro,
2009-01-10,5.05, 0.33, -58.19, 2.38, 1.49, 7.01, repro,
2009-01-11,3.95, -0.27, -44.57, 2.38, 1.50, 7.01, repro,
2009-01-12,-0.32, 2.86, 1.99, 2.38, 1.49, 6.98, repro,
2009-01-13,0.42, 1.81, -4.34, 2.38, 1.49, 7.00, repro,
2009-01-14,2.04, 2.14, 1.54, 2.41, 1.51, 7.10, repro,
2009-01-15,0.73, 1.47, -1.95, 2.35, 1.48, 6.99, repro,
2009-01-16,0.54, 1.79, 2.85, 2.35, 1.47, 6.95, repro,
2009-01-17,1.66, 1.67, 1.09, 2.42, 1.49, 7.10, repro,
2009-01-18,1.71, 1.61, 2.70, 2.44, 1.52, 7.15, repro,
2009-01-19,0.49, 1.17, -0.45, 2.51, 1.56, 7.35, repro,
2009-01-20,1.29, 0.77, -7.98, 2.44, 1.53, 7.24, repro,
2009-01-21,1.89, 0.62, -4.92, 2.38, 1.50, 7.03, repro,
2009-01-22,3.50, 1.24, -1.25, 2.34, 1.48, 6.96, repro,
2009-01-23,2.99, 1.67, -9.91, 2.50, 1.56, 7.39, repro,
2009-01-24,3.92, 1.07, -12.27, 2.40, 1.51, 7.13, repro,
2009-01-25,3.95, 1.21, -5.47, 2.34, 1.49, 7.01, repro,
2009-01-26,1.89, 0.98, -4.73, 2.34, 1.48, 6.99, repro,
2009-01-27,1.90, 0.27, -16.51, 2.36, 1.49, 6.99, repro,
2009-01-28,1.30, -0.07, -2.20, 2.34, 1.47, 6.96, repro,
2009-01-29,4.98, 1.02, 1.96, 2.35, 1.48, 6.98, repro,
2009-01-30,3.07, -0.30, 7.00, 2.36, 1.48, 7.06, repro,
2009-01-31,3.39, -0.14, 9.53, 2.35, 1.47, 6.96, repro,
2009-02-01,1.31, 0.07, 0.68, 2.33, 1.47, 6.96, repro,
2009-02-02,2.89, 0.53, 1.24, 2.34, 1.46, 6.92, repro,
2009-02-03,4.13, 0.56, -6.74, 2.34, 1.47, 6.94, repro,
2009-02-04,4.50, 2.07, -4.28, 2.36, 1.49, 6.97, repro,
2009-02-05,2.96, 1.80, -1.48, 2.43, 1.52, 7.18, repro,
2009-02-06,2.35, 1.32, -3.80, 2.42, 1.51, 7.10, repro,
2009-02-07,3.02, -0.03, -3.01, 2.38, 1.49, 7.08, repro,
2009-02-08,2.77, 0.17, -0.01, 2.37, 1.49, 7.03, repro,
2009-02-09,3.55, 0.78, -3.60, 2.36, 1.48, 7.03, repro,
2009-02-10,1.28, 1.03, 3.26, 2.36, 1.47, 6.97, repro,
2009-02-11,3.48, 1.48, -3.69, 2.42, 1.52, 7.14, repro,
2009-02-12,3.81, 1.35, -0.20, 2.40, 1.51, 7.09, repro,
2009-02-13,2.92, 2.49, -9.55, 2.33, 1.47, 6.92, repro,
2009-02-14,2.42, 1.77, -5.99, 2.33, 1.47, 6.94, repro,
2009-02-15,0.66, 1.57, -0.78, 2.33, 1.47, 6.94, repro,
2009-02-16,1.73, 1.43, 4.53, 2.35, 1.48, 7.01, repro,
2009-02-17,3.60, 1.06, -3.95, 2.36, 1.49, 7.00, repro,
2009-02-18,4.12, 1.62, -3.12, 2.34, 1.48, 6.96, repro,
2009-02-19,2.34, 3.10, -10.66, 2.32, 1.48, 6.97, repro,
2009-02-20,2.76, 1.30, -7.67, 2.34, 1.48, 6.98, repro,
2009-02-21,2.95, 1.97, -15.73, 2.38, 1.51, 7.13, repro,
2009-02-22,4.18, 2.34, -11.58, 2.34, 1.48, 7.00, repro,
2009-02-23,3.72, 2.18, -9.57, 2.38, 1.51, 7.07, repro,
2009-02-24,3.82, 1.61, -6.77, 2.55, 1.79, 7.48, repro,
2009-02-25,4.04, 0.16, -11.21, 208.65, 336.81, 562.30, repro,
2009-02-26,3.10, 2.60, -3.58, 2.39, 1.51, 7.09, repro,
2009-02-27,3.40, 1.71, -5.48, 2.37, 1.50, 7.03, repro,
2009-02-28,2.82, 2.25, -12.87, 2.32, 1.48, 6.93, repro,
2009-03-01,2.27, 1.91, -4.82, 2.32, 1.48, 6.97, repro,
2009-03-02,1.47, 2.37, -5.90, 2.32, 1.47, 6.93, repro,
2009-03-03,1.46, 1.49, -3.52, 2.38, 1.53, 7.12, repro,
2009-03-04,2.99, 2.98, -8.08, 2.33, 1.48, 6.98, repro,
2009-03-05,0.52, 2.86, -9.18, 2.33, 1.49, 6.98, repro,
2009-03-06,2.43, 4.26, -8.22, 2.40, 1.54, 7.21, repro,
2009-03-07,1.78, 3.45, -10.07, 2.34, 1.49, 7.00, repro,
2009-03-08,1.45, 3.23, -15.68, 2.33, 1.49, 7.00, repro,
2009-03-09,2.77, 2.95, -14.11, 2.32, 1.49, 7.01, repro,
2009-03-10,-0.27, 2.76, -13.41, 2.40, 1.54, 7.17, repro,
2009-03-11,1.32, 2.40, -10.70, 2.32, 1.48, 6.95, repro,
2009-03-12,0.73, 2.37, -13.18, 2.32, 1.48, 6.95, repro,
2009-03-13,-0.08, 2.34, -0.77, 2.34, 1.49, 7.01, repro,
2009-03-14,1.01, 1.01, 3.35, 2.32, 1.48, 6.95, repro,
2009-03-15,-0.27, 1.61, -1.34, 2.33, 1.50, 7.02, repro,
2009-03-16,-0.50, 2.69, -6.51, 2.35, 1.50, 7.03, repro,
2009-03-17,0.54, 3.31, -5.48, 2.32, 1.49, 6.95, repro,
2009-03-18,-1.20, 3.48, -10.14, 2.34, 1.49, 6.98, repro,
2009-03-19,1.52, 1.08, -10.22, 2.33, 1.49, 6.97, repro,
2009-03-20,-0.94, 2.16, -6.58, 2.32, 1.49, 6.95, repro,
2009-03-21,1.26, 2.84, -11.49, 2.34, 1.50, 7.02, repro,
2009-03-22,1.64, 2.76, -9.55, 2.35, 1.48, 6.99, repro,
2009-03-23,1.00, 2.93, -10.85, 2.34, 1.49, 7.01, repro,
2009-03-24,2.58, 1.29, -9.30, 2.35, 1.48, 7.01, repro,
2009-03-25,-1.01, 4.02, -7.51, 2.35, 1.49, 7.01, repro,
2009-03-26,-0.77, 1.65, -4.65, 2.34, 1.49, 7.01, repro,
2009-03-27,0.47, 0.81, -2.36, 2.40, 1.50, 7.10, repro,
2009-03-28,1.29, 1.19, -11.50, 2.49, 1.60, 7.44, repro,
2009-03-30,202.27, -265.47, 30.71, 1233.61, 1196.56, 1769.79, repro,
2009-03-31,-1.63, 1.57, 7.12, 3.90, 2.35, 12.00, repro,
2009-04-01,0.86, 0.62, -8.54, 2.38, 1.51, 7.11, repro,
2009-04-02,0.27, 1.43, -7.36, 2.42, 1.51, 7.12, repro,
2009-04-03,0.40, 2.52, -10.31, 2.43, 1.51, 7.10, repro,
2009-04-04,1.30, 1.44, -12.99, 2.34, 1.48, 6.96, repro,
2009-04-05,-0.58, 2.47, -13.13, 2.37, 1.50, 7.07, repro,
2009-04-06,2.33, 2.46, -9.38, 2.37, 1.50, 7.04, repro,
2009-04-07,-0.69, 1.49, -11.91, 2.37, 1.50, 7.06, repro,
2009-04-08,1.85, 1.88, -6.20, 2.35, 1.50, 7.03, repro,
2009-04-09,0.92, 1.59, -9.00, 2.35, 1.49, 6.96, repro,
2009-04-10,0.15, 2.84, -7.33, 2.36, 1.50, 7.06, repro,
2009-04-11,1.43, 0.38, -3.86, 2.37, 1.51, 7.13, repro,
2009-04-12,1.57, 1.08, -1.43, 2.38, 1.51, 7.13, repro,
2009-04-13,-0.46, 0.81, -10.88, 2.36, 1.50, 7.07, repro,
2009-04-14,0.75, 3.00, -8.63, 2.33, 1.48, 7.00, repro,
2009-04-15,0.09, 2.29, -12.41, 2.34, 1.49, 7.04, repro,
2009-04-16,-0.16, 2.63, -8.57, 2.36, 1.50, 7.10, repro,
2009-04-17,1.29, 1.91, -9.69, 2.34, 1.50, 7.09, repro,
2009-04-18,2.68, 1.67, -17.19, 2.37, 1.51, 7.13, repro,
2009-04-19,1.04, 1.98, -14.24, 2.35, 1.50, 7.07, repro,
2009-04-20,0.32, 3.02, -13.86, 2.36, 1.50, 7.08, repro,
2009-04-21,1.26, 1.56, -11.02, 2.36, 1.50, 7.10, repro,
2009-04-22,0.93, 1.28, -12.87, 2.33, 1.49, 7.07, repro,
2009-04-23,0.84, 3.04, -10.92, 2.33, 1.50, 7.08, repro,
2009-04-24,1.71, 1.77, -7.77, 2.35, 1.51, 7.12, repro,
2009-04-25,1.22, 2.71, -10.40, 2.34, 1.50, 7.07, repro,
2009-04-26,1.74, 2.04, -14.75, 2.33, 1.49, 7.04, repro,
2009-04-27,1.41, 1.60, -13.88, 2.33, 1.48, 7.01, repro,
2009-04-28,2.25, 2.30, -15.79, 2.33, 1.49, 7.07, repro,
2009-04-29,1.12, 2.39, -17.59, 3.29, 2.14, 9.58, repro,
2009-04-30,2.08, 2.05, -15.40, 2.38, 1.55, 7.26, repro,
2009-05-01,1.07, 0.75, -16.68, 2.34, 1.49, 7.02, repro,
2009-05-02,2.06, 2.86, -13.73, 2.32, 1.48, 6.99, repro,
2009-05-03,0.31, 1.26, -9.91, 2.33, 1.49, 7.05, repro,
2009-05-04,2.44, 2.23, -3.40, 2.34, 1.50, 7.13, repro,
2009-05-05,1.57, 0.60, -4.56, 2.32, 1.49, 7.05, repro,
2009-05-06,-0.11, 2.57, -2.18, 2.34, 1.49, 7.03, repro,
2009-05-07,1.38, 2.06, -9.20, 2.34, 1.50, 7.06, repro,
2009-05-08,2.93, 2.41, -10.42, 2.31, 1.48, 6.97, repro,
2009-05-09,2.68, 2.96, -13.68, 2.31, 1.48, 7.02, repro,
2009-05-10,1.36, 1.31, -12.29, 2.31, 1.49, 7.03, repro,
2009-05-11,1.24, 1.34, -18.48, 2.41, 1.52, 7.25, repro,
2009-05-12,1.29, 0.56, -9.18, 2.41, 1.52, 7.21, repro,
2009-05-13,-0.01, 1.50, -10.07, 2.34, 1.52, 7.18, repro,
2009-05-14,2.45, 3.16, -7.28, 2.31, 1.48, 7.02, repro,
2009-05-15,2.75, 3.52, -5.03, 2.33, 1.50, 7.13, repro,
2009-05-16,1.68, 1.88, -8.28, 2.32, 1.50, 7.09, repro,
2009-05-17,1.21, 0.72, -6.18, 2.33, 1.50, 7.08, repro,
2009-05-18,3.04, 0.78, -11.52, 2.33, 1.49, 7.08, repro,
2009-05-19,1.68, 1.25, -9.32, 2.38, 1.55, 7.25, repro,
2009-05-20,2.27, 2.82, -2.65, 2.32, 1.49, 7.11, repro,
2009-05-21,1.77, 1.97, -8.47, 2.31, 1.50, 7.12, repro,
2009-05-22,1.77, 2.49, -10.71, 2.33, 1.50, 7.14, repro,
2009-05-23,3.14, 2.43, -16.69, 2.34, 1.50, 7.15, repro,
2009-05-24,1.46, 0.54, -15.60, 2.32, 1.50, 7.09, repro,
2009-05-25,2.37, 1.80, -13.37, 2.32, 1.48, 7.02, repro,
2009-05-26,1.26, 2.78, -4.90, 2.85, 1.76, 8.58, repro,
2009-05-27,1.99, 1.67, -6.78, 2.67, 1.68, 8.17, repro,
2009-05-28,2.55, 2.07, -6.12, 2.34, 1.49, 7.09, repro,
2009-05-29,0.43, 1.65, 0.69, 2.35, 1.50, 7.12, repro,
2009-05-30,2.22, 2.94, -3.87, 2.31, 1.47, 6.99, repro,
2009-05-31,2.59, 1.51, -11.62, 2.32, 1.48, 7.03, repro,
2009-06-01,1.73, 2.41, -10.80, 2.32, 1.49, 7.09, repro,
2009-06-02,0.50, 2.20, -11.24, 2.33, 1.49, 7.11, repro,
2009-06-03,0.62, 1.97, -14.58, 2.34, 1.49, 7.11, repro,
2009-06-04,1.14, 2.50, -11.51, 2.32, 1.49, 7.09, repro,
2009-06-05,0.98, 1.78, -8.89, 2.31, 1.48, 7.03, repro,
2009-06-06,3.18, 3.60, -14.24, 2.37, 1.51, 7.24, repro,
2009-06-07,0.34, 3.86, -7.85, 2.34, 1.50, 7.16, repro,
2009-06-08,-0.49, 2.27, -3.60, 2.33, 1.49, 7.12, repro,
2009-06-09,1.44, 2.02, -7.72, 2.34, 1.50, 7.15, repro,
2009-06-10,1.17, 1.25, -12.75, 2.32, 1.49, 7.10, repro,
2009-06-11,0.69, 1.60, -6.15, 2.36, 1.52, 7.24, repro,
2009-06-12,3.46, 1.39, -2.13, 2.82, 1.79, 8.81, repro,
2009-06-13,3.02, 2.09, 0.87, 3.00, 1.96, 9.26, repro,
2009-06-14,3.97, 1.32, -1.44, 2.83, 1.88, 9.38, repro,
2009-06-15,1.60, 1.34, 0.52, 2.67, 1.72, 8.22, repro,
2009-06-16,1.44, 0.99, 0.34, 2.31, 1.48, 7.04, repro,
2009-06-17,0.98, 2.65, -5.43, 2.34, 1.49, 7.10, repro,
2009-06-18,2.01, 1.41, 1.60, 2.34, 1.50, 7.13, repro,
2009-06-19,0.33, 1.26, -2.15, 2.36, 1.51, 7.27, repro,
2009-06-20,2.10, 1.12, -1.35, 2.36, 1.52, 7.32, repro,
2009-06-21,-0.76, 1.89, 1.77, 2.32, 1.49, 7.07, repro,
2009-06-22,2.01, 1.62, 1.52, 2.33, 1.48, 7.07, repro,
2009-06-23,1.23, 1.79, 1.15, 2.33, 1.49, 7.10, repro,
2009-06-24,-0.24, 1.90, -4.65, 2.36, 1.51, 7.15, repro,
2009-06-25,0.21, 2.90, -1.04, 2.34, 1.50, 7.14, repro,
2009-06-26,1.22, 1.91, 3.52, 2.36, 1.52, 7.26, repro,
2009-06-27,-1.36, 0.19, 3.98, 2.34, 1.51, 7.20, repro,
2009-06-28,0.57, 0.99, -1.04, 2.33, 1.50, 7.13, repro,
2009-06-29,0.81, 3.05, -2.65, 2.38, 1.53, 7.29, repro,
2009-06-30,1.12, 2.40, -0.63, 2.35, 1.51, 7.19, repro,
2009-07-01,-0.84, 2.47, -5.89, 2.35, 1.52, 7.22, repro,
2009-07-02,1.37, 1.91, -0.39, 2.33, 1.49, 7.08, repro,
2009-07-03,0.46, 1.80, -4.89, 2.33, 1.48, 7.08, repro,
2009-07-04,2.04, 1.57, -5.31, 2.33, 1.50, 7.11, repro,
2009-07-05,1.66, 3.01, -3.83, 2.34, 1.50, 7.10, repro,
2009-07-06,1.43, 1.00, -1.68, 2.33, 1.49, 7.08, repro,
2009-07-07,1.01, 1.81, 1.44, 2.37, 1.51, 7.28, repro,
2009-07-08,0.24, 1.60, -0.96, 2.33, 1.49, 7.08, repro,
2009-07-09,1.95, 1.24, 0.69, 2.32, 1.49, 7.07, repro,
2009-07-10,1.90, 2.28, 2.51, 2.34, 1.49, 7.11, repro,
2009-07-11,1.51, 2.94, 1.45, 2.33, 1.50, 7.10, repro,
2009-07-12,0.93, 2.62, -0.23, 2.33, 1.49, 7.08, repro,
2009-07-13,2.28, 2.38, 1.06, 2.34, 1.50, 7.12, repro,
2009-07-14,1.64, 2.32, 4.08, 2.33, 1.50, 7.11, repro,
2009-07-15,1.84, 2.84, 4.92, 2.32, 1.49, 7.09, repro,
2009-07-16,1.22, 1.54, 6.08, 2.33, 1.49, 7.11, repro,
2009-07-17,0.52, 1.36, 5.09, 2.33, 1.49, 7.12, repro,
2009-07-18,2.35, 1.14, 7.31, 2.34, 1.50, 7.14, repro,
2009-07-19,0.42, 1.49, 0.91, 2.34, 1.49, 7.13, repro,
2009-07-20,1.80, 2.36, 5.06, 2.31, 1.48, 7.06, repro,
2009-07-21,2.08, 1.00, 3.69, 2.38, 1.52, 7.39, repro,
2009-07-22,0.55, 2.09, 7.92, 2.45, 1.56, 7.46, repro,
2009-07-23,5.35, 1.04, 16.32, 2.34, 1.49, 7.13, repro,
2009-07-24,-0.51, 2.13, 10.09, 2.36, 1.53, 7.41, repro,
2009-07-25,0.08, 1.06, 7.67, 2.40, 1.52, 7.25, repro,
2009-07-26,0.14, -0.32, 6.86, 5.35, 4.03, 15.08, repro,
2009-07-27,-1.30, 3.03, 4.30, 2.41, 1.56, 7.41, repro,
2009-07-28,-0.91, 1.26, 8.43, 2.35, 1.50, 7.15, repro,
2009-07-29,0.38, 0.98, 3.24, 2.39, 1.51, 7.24, repro,
2009-07-30,0.43, 2.02, 8.95, 2.38, 1.51, 7.21, repro,
2009-07-31,0.59, 2.09, 6.80, 2.36, 1.52, 7.28, repro,
2009-08-01,0.34, 2.29, 2.77, 2.34, 1.51, 7.14, repro,
2009-08-02,0.73, 0.87, 4.02, 2.34, 1.50, 7.15, repro,
2009-08-03,2.22, 2.02, 6.91, 2.43, 1.55, 7.57, repro,
2009-08-04,0.55, 1.17, 8.40, 2.75, 1.79, 8.47, repro,
2009-08-05,0.37, 0.79, 8.99, 12.69, 15.78, 25.78, repro,
2009-08-06,-8.11, -7.20, 38.57, 25.06, 31.19, 51.38, repro,
2009-08-07,-1.95, 1.35, 14.84, 2.32, 1.50, 7.10, repro,
2009-08-08,-2.53, 2.11, 10.72, 2.36, 1.50, 7.16, repro,
2009-08-09,-0.68, 1.84, 15.64, 2.34, 1.50, 7.15, repro,
2009-08-10,-1.28, 0.58, 13.47, 2.36, 1.51, 7.17, repro,
2009-08-11,-1.15, 2.16, 13.76, 2.33, 1.49, 7.05, repro,
2009-08-12,-0.91, 1.09, 14.09, 2.32, 1.50, 7.04, repro,
2009-08-13,0.42, 1.60, 5.59, 2.34, 1.51, 7.11, repro,
2009-08-14,-2.42, 1.51, 10.68, 2.37, 1.51, 7.19, repro,
2009-08-15,-1.79, 1.43, 18.00, 2.35, 1.50, 7.13, repro,
2009-08-16,-0.62, -0.38, 19.26, 2.34, 1.49, 7.06, repro,
2009-08-17,-2.11, 1.35, 13.87, 2.39, 1.52, 7.21, repro,
2009-08-18,-0.97, 0.38, 10.65, 2.34, 1.51, 7.13, repro,
2009-08-19,-1.86, 1.15, 13.59, 2.37, 1.52, 7.24, repro,
2009-08-20,0.09, 0.99, 14.94, 2.39, 1.52, 7.27, repro,
2009-08-21,-1.03, 1.13, 16.37, 2.37, 1.51, 7.20, repro,
2009-08-22,-0.16, 1.10, 17.75, 2.39, 1.52, 7.23, repro,
2009-08-23,-1.56, 1.39, 19.24, 2.37, 1.53, 7.24, repro,
2009-08-24,-3.06, 1.33, 21.70, 2.37, 1.52, 7.25, repro,
2009-08-25,-1.54, 0.73, 22.47, 2.38, 1.53, 7.29, repro,
2009-08-26,-1.37, 1.02, 16.39, 2.39, 1.52, 7.28, repro,
2009-08-27,-1.79, 2.39, 12.37, 2.47, 1.56, 7.51, repro,
2009-08-28,-2.87, 1.59, 8.34, 2.34, 1.51, 7.23, repro,